Flag for Canada Weather past 2 weeks in Brandon, Manitoba, Canada

Now
70 °F

Scattered clouds.


Feels Like: 70 °F
Forecast: 51 / 80 °F
Wind: 10 mph from West

Location: Brandon

Current Time: May 23, 2015 at 10:33:14 PM

Latest Report: May 23, 2015 at 9:00 PM


Visibility: 15 mi

Pressure: 30.05 "Hg

Humidity: 35%

Dew point: 41 °F

Location of BrandonLocation

Historic Weather in Brandon — Graph

°F

Brandon temperature yesterday

Maximum temperature yesterday: 79 °F (at 4:00 PM)
Minimum temperature yesterday: 39 °F (at 5:00 AM)
Average temperature yesterday: 62 °F

Past Weeks' High & Low Weather Summary

 TemperatureHumidityPressure
High81 °F (May 23, 5:00 PM)100% (May 13, 7:00 PM)30.51 "Hg (May 13, 7:00 PM)
Low25 °F (May 10, 6:00 AM)17% (May 23, 6:00 PM)29.82 "Hg (May 16, 6:00 PM)
Average47 °F62%30.18 "Hg
* Reported May 8 9:00 PM — May 23 9:00 PM, Brandon, Weather by CustomWeather, © 2015

Note: Actual official high and low records may vary slightly from our data, if they occured in-between our weather recording intervals... More about our weather records

Advertising

Brandon weather history for previous 24 hours

 ConditionsComfort  
Time TempWeatherWind HumidityBarometerVisibility
9:00 PM
Sat, May 23
70 °FScattered clouds.10 mph35%30.05 "Hg15 mi
8:00 PM77 °FPassing clouds.7 mph24%30.05 "Hg15 mi
7:00 PM79 °FScattered clouds.7 mph20%30.06 "Hg15 mi
6:00 PM81 °FScattered clouds.7 mph17%30.07 "Hg15 mi
5:00 PM81 °FBroken clouds.3 mph18%30.08 "Hg15 mi
4:00 PM79 °FBroken clouds.6 mph20%30.09 "Hg15 mi
3:00 PM79 °FPartly sunny.7 mph18%30.09 "Hg15 mi
2:00 PM79 °FScattered clouds.5 mph20%30.09 "Hg15 mi
1:00 PM79 °FPassing clouds.8 mph20%30.10 "Hg15 mi
12:00 PM77 °FPassing clouds.7 mph24%30.10 "Hg15 mi
11:00 AM75 °FPassing clouds.12 mph27%30.10 "Hg15 mi
10:00 AM72 °FPassing clouds.12 mph36%30.11 "Hg15 mi
9:00 AM64 °FPassing clouds.9 mph49%30.13 "Hg15 mi
8:00 AM55 °FPassing clouds.7 mph67%30.14 "Hg15 mi
7:00 AM46 °FPassing clouds.8 mph76%30.14 "Hg15 mi
6:00 AM43 °FPassing clouds.6 mph81%30.13 "Hg15 mi
5:00 AM45 °FPassing clouds.5 mph71%30.12 "Hg15 mi
4:00 AM45 °FClear.7 mph71%30.12 "Hg15 mi
3:00 AM48 °FClear.6 mph66%30.11 "Hg15 mi
2:00 AM50 °FPassing clouds.3 mph62%30.11 "Hg15 mi
1:00 AM48 °FPassing clouds.No wind66%30.11 "Hg15 mi
12:00 AM59 °FPassing clouds.7 mph45%30.09 "Hg15 mi
11:00 PM
Fri, May 22
64 °FPassing clouds.6 mph37%30.09 "Hg15 mi
10:00 PM68 °FScattered clouds.6 mph30%30.09 "Hg15 mi
Weather by CustomWeather, © 2015

See weather overviewHow to use our weather pages